| time (UTC) | temp F | wind direction | speed MPH | gust MPH | rain 1hr in | rain 24hr in | rain mn in | humidity % | barometer mb |
| 20260507180021 | 85 | 334 | 5.0 | 12.0 | 0.00 | 0.00 | 0.00 | 79 | 1015.9 |
| 20260507175509 | 85 | 24 | 5.0 | 12.0 | 0.00 | 0.00 | 0.00 | 78 | 1015.9 |
| 20260507175008 | 85 | 355 | 6.0 | 12.0 | 0.00 | 0.00 | 0.00 | 78 | 1016.0 |
| 20260507174523 | 86 | 11 | 4.0 | 12.0 | 0.00 | 0.00 | 0.00 | 78 | 1016.2 |
| 20260507174010 | 86 | 345 | 5.0 | 12.0 | 0.00 | 0.00 | 0.00 | 78 | 1016.3 |
| 20260507173506 | 85 | 340 | 6.0 | 11.0 | 0.00 | 0.00 | 0.00 | 78 | 1016.3 |
| 20260507173047 | 85 | 355 | 4.0 | 11.0 | 0.00 | 0.00 | 0.00 | 77 | 1016.3 |
| 20260507172504 | 85 | 14 | 4.0 | 13.0 | 0.00 | 0.00 | 0.00 | 77 | 1016.5 |
| 20260507172003 | 86 | 336 | 7.0 | 13.0 | 0.00 | 0.00 | 0.00 | 75 | 1016.5 |
| 20260507171506 | 85 | 21 | 4.0 | 15.0 | 0.00 | 0.00 | 0.00 | 76 | 1016.6 |
| 20260507171004 | 85 | 343 | 6.0 | 15.0 | 0.00 | 0.00 | 0.00 | 77 | 1016.6 |
| 20260507170504 | 84 | 331 | 6.0 | 13.0 | 0.00 | 0.00 | 0.00 | 78 | 1016.7 |
| 20260507170014 | 84 | 333 | 8.0 | 14.0 | 0.00 | 0.00 | 0.00 | 79 | 1016.7 |
| 20260507165507 | 84 | 316 | 8.0 | 14.0 | 0.00 | 0.00 | 0.00 | 79 | 1016.8 |
| 20260507165005 | 85 | 342 | 6.0 | 10.0 | 0.00 | 0.00 | 0.00 | 78 | 1016.9 |
| 20260507164519 | 85 | 355 | 2.0 | 7.0 | 0.00 | 0.00 | 0.00 | 78 | 1017.1 |
| 20260507164007 | 85 | 333 | 3.0 | 10.0 | 0.00 | 0.00 | 0.00 | 77 | 1017.0 |
| 20260507163512 | 86 | 355 | 2.0 | 10.0 | 0.00 | 0.00 | 0.00 | 77 | 1017.1 |
| 20260507163025 | 87 | 352 | 4.0 | 10.0 | 0.00 | 0.00 | 0.00 | 74 | 1017.2 |
| 20260507162517 | 88 | 121 | 1.0 | 9.0 | 0.00 | 0.00 | 0.00 | 74 | 1017.2 |
| 20260507162012 | 88 | 96 | 4.0 | 11.0 | 0.00 | 0.00 | 0.00 | 74 | 1017.2 |
| 20260507161525 | 88 | 138 | 5.0 | 13.0 | 0.00 | 0.00 | 0.00 | 75 | 1017.2 |
| 20260507161003 | 88 | 144 | 7.0 | 13.0 | 0.00 | 0.00 | 0.00 | 74 | 1017.1 |
| 20260507160505 | 87 | 182 | 6.0 | 16.0 | 0.00 | 0.00 | 0.00 | 74 | 1017.0 |
| 20260507160010 | 87 | 156 | 9.0 | 16.0 | 0.00 | 0.00 | 0.00 | 75 | 1017.2 |
| 20260507155514 | 87 | 192 | 8.0 | 13.0 | 0.00 | 0.00 | 0.00 | 75 | 1017.2 |
| 20260507155006 | 87 | 166 | 7.0 | 13.0 | 0.00 | 0.00 | 0.00 | 75 | 1017.2 |
| 20260507154514 | 88 | 154 | 6.0 | 13.0 | 0.00 | 0.00 | 0.00 | 74 | 1017.2 |
| 20260507154011 | 88 | 150 | 6.0 | 13.0 | 0.00 | 0.00 | 0.00 | 74 | 1017.3 |
| 20260507153506 | 88 | 150 | 7.0 | 14.0 | 0.00 | 0.00 | 0.00 | 73 | 1017.3 |
| 20260507153017 | 88 | 151 | 8.0 | 14.0 | 0.00 | 0.00 | 0.00 | 73 | 1017.3 |
| 20260507152508 | 88 | 123 | 4.0 | 13.0 | 0.00 | 0.00 | 0.00 | 73 | 1017.3 |
| 20260507152017 | 87 | 136 | 7.0 | 18.0 | 0.00 | 0.00 | 0.00 | 73 | 1017.4 |
| 20260507151522 | 87 | 132 | 6.0 | 18.0 | 0.00 | 0.00 | 0.00 | 74 | 1017.4 |
| 20260507151011 | 87 | 146 | 6.0 | 16.0 | 0.00 | 0.00 | 0.00 | 72 | 1017.5 |
| 20260507150012 | 88 | 183 | 7.0 | 12.0 | 0.00 | 0.00 | 0.00 | 71 | 1017.5 |
| 20260507145506 | 88 | 82 | 5.0 | 16.0 | 0.00 | 0.00 | 0.00 | 72 | 1017.5 |
| 20260507145007 | 88 | 115 | 6.0 | 16.0 | 0.00 | 0.00 | 0.00 | 72 | 1017.5 |
| 20260507144510 | 88 | 157 | 9.0 | 16.0 | 0.00 | 0.00 | 0.00 | 72 | 1017.5 |
| 20260507144006 | 87 | 126 | 5.0 | 11.0 | 0.00 | 0.00 | 0.00 | 74 | 1017.5 |
| 20260507143510 | 87 | 156 | 6.0 | 14.0 | 0.00 | 0.00 | 0.00 | 75 | 1017.6 |
| 20260507142509 | 86 | 111 | 6.0 | 13.0 | 0.00 | 0.00 | 0.00 | 75 | 1017.7 |
| 20260507142022 | 86 | 80 | 6.0 | 13.0 | 0.00 | 0.00 | 0.00 | 75 | 1017.7 |
| 20260507141520 | 86 | 133 | 6.0 | 13.0 | 0.00 | 0.00 | 0.00 | 75 | 1017.7 |
| 20260507141011 | 86 | 78 | 4.0 | 10.0 | 0.00 | 0.00 | 0.00 | 76 | 1017.7 |
| 20260507140509 | 86 | 117 | 3.0 | 12.0 | 0.00 | 0.00 | 0.00 | 76 | 1017.7 |
| 20260507140026 | 85 | 122 | 8.0 | 12.0 | 0.00 | 0.00 | 0.00 | 76 | 1017.7 |
| 20260507135510 | 85 | 87 | 7.0 | 12.0 | 0.00 | 0.00 | 0.00 | 77 | 1017.7 |
| 20260507135011 | 84 | 123 | 4.0 | 11.0 | 0.00 | 0.00 | 0.00 | 77 | 1017.6 |
| 20260507134006 | 85 | 129 | 5.0 | 11.0 | 0.00 | 0.00 | 0.00 | 76 | 1017.6 |
| 20260507133504 | 85 | 121 | 4.0 | 12.0 | 0.00 | 0.00 | 0.00 | 76 | 1017.6 |
| 20260507133017 | 85 | 134 | 7.0 | 12.0 | 0.00 | 0.00 | 0.00 | 76 | 1017.6 |
| 20260507132512 | 85 | 90 | 5.0 | 12.0 | 0.00 | 0.00 | 0.00 | 77 | 1017.5 |
| 20260507132008 | 85 | 78 | 4.0 | 13.0 | 0.00 | 0.00 | 0.00 | 77 | 1017.6 |
| 20260507131007 | 84 | 96 | 7.0 | 13.0 | 0.00 | 0.00 | 0.00 | 79 | 1017.6 |
| 20260507130510 | 84 | 112 | 4.0 | 11.0 | 0.00 | 0.00 | 0.00 | 80 | 1017.6 |
| 20260507130023 | 84 | 161 | 6.0 | 11.0 | 0.00 | 0.00 | 0.00 | 80 | 1017.5 |
| 20260507125511 | 84 | 159 | 5.0 | 12.0 | 0.00 | 0.00 | 0.00 | 79 | 1017.5 |
| 20260507125013 | 84 | 125 | 5.0 | 12.0 | 0.00 | 0.00 | 0.00 | 80 | 1017.4 |
| 20260507124527 | 84 | 124 | 7.0 | 12.0 | 0.00 | 0.00 | 0.00 | 80 | 1017.4 |
| 20260507124008 | 84 | 84 | 5.0 | 9.0 | 0.00 | 0.00 | 0.00 | 80 | 1017.3 |
| 20260507123506 | 83 | 147 | 5.0 | 11.0 | 0.00 | 0.00 | 0.00 | 81 | 1017.3 |
| 20260507122504 | 83 | 126 | 5.0 | 12.0 | 0.00 | 0.00 | 0.00 | 81 | 1017.1 |
| 20260507122004 | 82 | 157 | 4.0 | 12.0 | 0.00 | 0.00 | 0.00 | 81 | 1017.1 |
| 20260507121508 | 82 | 180 | 5.0 | 12.0 | 0.00 | 0.00 | 0.00 | 81 | 1017.0 |
| 20260507121006 | 82 | 157 | 5.0 | 12.0 | 0.00 | 0.00 | 0.00 | 82 | 1016.9 |
| 20260507120504 | 82 | 146 | 7.0 | 14.0 | 0.00 | 0.00 | 0.00 | 82 | 1016.8 |
| 20260507120007 | 82 | 140 | 7.0 | 14.0 | 0.00 | 0.00 | 0.00 | 82 | 1016.6 |
| 20260507115505 | 82 | 156 | 7.0 | 13.0 | 0.00 | 0.00 | 0.00 | 81 | 1016.6 |
| 20260507115004 | 82 | 116 | 8.0 | 12.0 | 0.00 | 0.00 | 0.00 | 81 | 1016.6 |
| 20260507114505 | 82 | 129 | 6.0 | 10.0 | 0.00 | 0.00 | 0.00 | 82 | 1016.6 |
| 20260507113505 | 81 | 94 | 3.0 | 7.0 | 0.00 | 0.00 | 0.00 | 83 | 1016.5 |
| 20260507112506 | 80 | 136 | 3.0 | 9.0 | 0.00 | 0.00 | 0.00 | 85 | 1016.5 |
| 20260507111008 | 79 | 121 | 3.0 | 7.0 | 0.00 | 0.00 | 0.00 | 87 | 1016.5 |
| 20260507110504 | 78 | 109 | 4.0 | 7.0 | 0.00 | 0.00 | 0.00 | 88 | 1016.5 |
| 20260507110008 | 77 | 107 | 2.0 | 6.0 | 0.00 | 0.00 | 0.00 | 89 | 1016.5 |
| 20260507105506 | 76 | 101 | 3.0 | 6.0 | 0.00 | 0.00 | 0.00 | 90 | 1016.6 |
| 20260507105003 | 76 | 95 | 3.0 | 6.0 | 0.00 | 0.00 | 0.00 | 91 | 1016.5 |
| 20260507104511 | 75 | 98 | 1.0 | 4.0 | 0.00 | 0.00 | 0.00 | 91 | 1016.5 |
| 20260507104005 | 74 | 95 | 1.0 | 3.0 | 0.00 | 0.00 | 0.00 | 91 | 1016.4 |
| 20260507103504 | 74 | 90 | 1.0 | 3.0 | 0.00 | 0.00 | 0.00 | 91 | 1016.4 |
| 20260507103007 | 74 | 82 | 1.0 | 3.0 | 0.00 | 0.00 | 0.00 | 92 | 1016.3 |
| 20260507102505 | 74 | 78 | 1.0 | 3.0 | 0.00 | 0.00 | 0.00 | 92 | 1016.3 |
| 20260507102007 | 73 | 78 | 1.0 | 4.0 | 0.00 | 0.00 | 0.00 | 92 | 1016.2 |
| 20260507101511 | 73 | 78 | 2.0 | 4.0 | 0.00 | 0.00 | 0.00 | 93 | 1016.1 |
| 20260507101007 | 72 | 96 | 1.0 | 3.0 | 0.00 | 0.00 | 0.00 | 92 | 1016.0 |
| 20260507100506 | 72 | 96 | 1.0 | 4.0 | 0.00 | 0.00 | 0.00 | 92 | 1015.9 |
| 20260507100017 | 72 | 96 | 2.0 | 4.0 | 0.00 | 0.00 | 0.00 | 93 | 1015.8 |
| 20260507095504 | 72 | 96 | 0.0 | 3.0 | 0.00 | 0.00 | 0.00 | 93 | 1015.7 |
| 20260507095004 | 72 | 96 | 1.0 | 3.0 | 0.00 | 0.00 | 0.00 | 93 | 1015.6 |
| 20260507094512 | 72 | 96 | 0.0 | 3.0 | 0.00 | 0.00 | 0.00 | 93 | 1015.6 |
| 20260507094013 | 72 | 96 | 1.0 | 3.0 | 0.00 | 0.00 | 0.00 | 93 | 1015.6 |
| 20260507093506 | 72 | 96 | 0.0 | 3.0 | 0.00 | 0.00 | 0.00 | 93 | 1015.6 |
| 20260507093013 | 72 | 96 | 0.0 | 2.0 | 0.00 | 0.00 | 0.00 | 93 | 1015.7 |
| 20260507092505 | 72 | 96 | 0.0 | 2.0 | 0.00 | 0.00 | 0.00 | 93 | 1015.7 |
| 20260507092005 | 72 | 96 | 0.0 | 2.0 | 0.00 | 0.00 | 0.00 | 92 | 1015.8 |
| 20260507091506 | 72 | 96 | 1.0 | 3.0 | 0.00 | 0.00 | 0.00 | 92 | 1015.8 |
| 20260507091007 | 72 | 96 | 0.0 | 3.0 | 0.00 | 0.00 | 0.00 | 92 | 1015.8 |
| 20260507090507 | 72 | 96 | 1.0 | 3.0 | 0.00 | 0.00 | 0.00 | 92 | 1015.9 |
| 20260507090012 | 72 | 96 | 1.0 | 3.0 | 0.00 | 0.00 | 0.00 | 92 | 1015.9 |
| 20260507085507 | 72 | 96 | 1.0 | 3.0 | 0.00 | 0.00 | 0.00 | 92 | 1015.8 |
| 20260507085008 | 72 | 96 | 1.0 | 4.0 | 0.00 | 0.00 | 0.00 | 92 | 1015.9 |
| 20260507084514 | 72 | 96 | 0.0 | 4.0 | 0.00 | 0.00 | 0.00 | 92 | 1015.9 |
| 20260507084007 | 72 | 96 | 1.0 | 4.0 | 0.00 | 0.00 | 0.00 | 92 | 1015.9 |
| 20260507083504 | 72 | 96 | 0.0 | 4.0 | 0.00 | 0.00 | 0.00 | 92 | 1015.9 |
| 20260507083016 | 72 | 97 | 0.0 | 4.0 | 0.00 | 0.00 | 0.00 | 92 | 1016.0 |
| 20260507082504 | 72 | 98 | 0.0 | 4.0 | 0.00 | 0.00 | 0.00 | 93 | 1016.0 |
| 20260507082007 | 72 | 103 | 1.0 | 4.0 | 0.00 | 0.00 | 0.00 | 93 | 1016.0 |
| 20260507081515 | 72 | 103 | 0.0 | 3.0 | 0.00 | 0.00 | 0.00 | 93 | 1015.9 |
| 20260507081005 | 72 | 103 | 0.0 | 3.0 | 0.00 | 0.00 | 0.00 | 93 | 1015.8 |
| 20260507080013 | 72 | 103 | 0.0 | 3.0 | 0.00 | 0.00 | 0.00 | 93 | 1015.8 |
| 20260507075008 | 72 | 103 | 0.0 | 2.0 | 0.00 | 0.00 | 0.00 | 93 | 1015.8 |
| 20260507074515 | 72 | 103 | 0.0 | 2.0 | 0.00 | 0.00 | 0.00 | 93 | 1015.9 |
| 20260507073508 | 72 | 103 | 0.0 | 3.0 | 0.00 | 0.00 | 0.00 | 93 | 1016.0 |
| 20260507073017 | 72 | 103 | 0.0 | 3.0 | 0.00 | 0.00 | 0.00 | 93 | 1015.9 |
| 20260507072505 | 72 | 103 | 0.0 | 3.0 | 0.00 | 0.00 | 0.00 | 93 | 1016.0 |
| 20260507072006 | 72 | 103 | 1.0 | 3.0 | 0.00 | 0.00 | 0.00 | 93 | 1016.1 |
| 20260507071518 | 72 | 103 | 0.0 | 3.0 | 0.00 | 0.00 | 0.00 | 93 | 1016.1 |
| 20260507071005 | 72 | 103 | 1.0 | 3.0 | 0.00 | 0.00 | 0.00 | 93 | 1016.2 |
| 20260507070507 | 72 | 103 | 1.0 | 3.0 | 0.00 | 0.00 | 0.00 | 93 | 1016.2 |
| 20260507070026 | 72 | 103 | 0.0 | 3.0 | 0.00 | 0.00 | 0.00 | 93 | 1016.2 |
| 20260507065003 | 73 | 104 | 0.0 | 3.0 | 0.00 | 0.00 | 0.00 | 93 | 1016.3 |
| 20260507064516 | 73 | 104 | 0.0 | 2.0 | 0.00 | 0.00 | 0.00 | 93 | 1016.4 |
| 20260507064008 | 73 | 104 | 0.0 | 2.0 | 0.00 | 0.00 | 0.00 | 93 | 1016.4 |
| 20260507063510 | 73 | 104 | 0.0 | 2.0 | 0.00 | 0.00 | 0.00 | 93 | 1016.6 |
| 20260507062504 | 73 | 104 | 0.0 | 4.0 | 0.00 | 0.00 | 0.00 | 93 | 1016.6 |
| 20260507062004 | 73 | 104 | 0.0 | 4.0 | 0.00 | 0.00 | 0.00 | 93 | 1016.6 |
| 20260507061508 | 73 | 104 | 0.0 | 4.0 | 0.00 | 0.00 | 0.00 | 93 | 1016.7 |
| 20260507054511 | 74 | 112 | 0.0 | 3.0 | 0.00 | 0.00 | 0.00 | 92 | 1017.2 |
| 20260507054004 | 74 | 113 | 1.0 | 3.0 | 0.00 | 0.00 | 0.00 | 92 | 1017.2 |
| 20260507053504 | 74 | 113 | 0.0 | 3.0 | 0.00 | 0.00 | 0.00 | 92 | 1017.3 |
| 20260507053010 | 74 | 113 | 1.0 | 3.0 | 0.00 | 0.00 | 0.00 | 92 | 1017.3 |
| 20260507052504 | 74 | 113 | 1.0 | 3.0 | 0.00 | 0.00 | 0.00 | 92 | 1017.4 |
| 20260507052007 | 74 | 113 | 1.0 | 4.0 | 0.00 | 0.00 | 0.00 | 92 | 1017.4 |
| 20260507051514 | 74 | 113 | 0.0 | 4.0 | 0.00 | 0.00 | 0.00 | 92 | 1017.5 |
| 20260507051005 | 75 | 105 | 1.0 | 4.0 | 0.00 | 0.00 | 0.00 | 92 | 1017.6 |
| 20260507050505 | 75 | 104 | 1.0 | 4.0 | 0.00 | 0.00 | 0.00 | 92 | 1017.7 |
| 20260507050020 | 75 | 112 | 0.0 | 4.0 | 0.00 | 0.00 | 0.00 | 92 | 1017.7 |
| 20260507044509 | 75 | 107 | 0.0 | 3.0 | 0.00 | 0.00 | 0.00 | 93 | 1017.9 |
| 20260507043010 | 76 | 107 | 0.0 | 3.0 | 0.00 | 0.00 | 0.00 | 92 | 1018.1 |
| 20260507042007 | 76 | 107 | 1.0 | 2.0 | 0.00 | 0.00 | 0.00 | 92 | 1018.2 |
| 20260507041513 | 76 | 107 | 0.0 | 2.0 | 0.00 | 0.00 | 0.00 | 92 | 1018.3 |
| 20260507041005 | 76 | 107 | 0.0 | 0.0 | 0.00 | 0.00 | 0.00 | 92 | 1018.3 |
| 20260507040507 | 76 | 107 | 0.0 | 0.0 | 0.00 | 0.00 | 0.00 | 92 | 1018.4 |
| 20260507040013 | 77 | 107 | 0.0 | 2.0 | 0.00 | 0.00 | 0.00 | 91 | 1018.5 |
| 20260507035508 | 77 | 106 | 0.0 | 3.0 | 0.00 | 0.00 | 0.00 | 91 | 1018.5 |
| 20260507035008 | 77 | 107 | 0.0 | 3.0 | 0.00 | 0.00 | 0.00 | 91 | 1018.4 |
| 20260507034513 | 77 | 107 | 1.0 | 3.0 | 0.00 | 0.00 | 0.00 | 91 | 1018.4 |
| 20260507033013 | 77 | 107 | 1.0 | 4.0 | 0.00 | 0.00 | 0.00 | 91 | 1018.6 |
| 20260507032508 | 77 | 107 | 1.0 | 4.0 | 0.00 | 0.00 | 0.00 | 91 | 1018.7 |
| 20260507032017 | 78 | 107 | 1.0 | 3.0 | 0.00 | 0.00 | 0.00 | 91 | 1018.7 |
| 20260507031009 | 78 | 107 | 0.0 | 3.0 | 0.00 | 0.00 | 0.00 | 91 | 1018.7 |
| 20260507030509 | 78 | 107 | 1.0 | 4.0 | 0.00 | 0.00 | 0.00 | 91 | 1018.8 |
| 20260507030017 | 78 | 107 | 0.0 | 4.0 | 0.00 | 0.00 | 0.00 | 91 | 1018.8 |
| 20260507025507 | 78 | 107 | 1.0 | 4.0 | 0.00 | 0.00 | 0.00 | 91 | 1018.7 |
| 20260507025008 | 78 | 107 | 0.0 | 2.0 | 0.00 | 0.00 | 0.00 | 91 | 1018.7 |
| 20260507024514 | 78 | 107 | 1.0 | 3.0 | 0.00 | 0.00 | 0.00 | 91 | 1018.6 |
| 20260507024007 | 78 | 107 | 0.0 | 3.0 | 0.00 | 0.00 | 0.00 | 91 | 1018.7 |
| 20260507023507 | 78 | 107 | 0.0 | 3.0 | 0.00 | 0.00 | 0.00 | 90 | 1018.7 |
| 20260507023010 | 79 | 107 | 0.0 | 3.0 | 0.00 | 0.00 | 0.00 | 90 | 1018.6 |
| 20260507021514 | 79 | 107 | 1.0 | 4.0 | 0.00 | 0.00 | 0.00 | 90 | 1018.5 |
| 20260507015504 | 79 | 107 | 0.0 | 3.0 | 0.00 | 0.00 | 0.00 | 90 | 1018.4 |
| 20260507015009 | 79 | 107 | 1.0 | 3.0 | 0.00 | 0.00 | 0.00 | 89 | 1018.3 |
| 20260507014521 | 79 | 107 | 0.0 | 3.0 | 0.00 | 0.00 | 0.00 | 89 | 1018.2 |
| 20260507014007 | 80 | 107 | 0.0 | 3.0 | 0.00 | 0.00 | 0.00 | 89 | 1018.2 |
| 20260507013508 | 80 | 107 | 1.0 | 3.0 | 0.00 | 0.00 | 0.00 | 88 | 1018.1 |
| 20260507013016 | 80 | 107 | 1.0 | 4.0 | 0.00 | 0.00 | 0.00 | 87 | 1018.1 |
| 20260507012510 | 81 | 106 | 1.0 | 5.0 | 0.00 | 0.00 | 0.00 | 86 | 1018.1 |
| 20260507012009 | 81 | 101 | 2.0 | 6.0 | 0.00 | 0.00 | 0.00 | 86 | 1018.1 |
| 20260507011523 | 81 | 117 | 2.0 | 6.0 | 0.00 | 0.00 | 0.00 | 86 | 1018.0 |
| 20260507010020 | 81 | 109 | 2.0 | 8.0 | 0.00 | 0.00 | 0.00 | 86 | 1017.9 |
| 20260507005007 | 81 | 123 | 3.0 | 9.0 | 0.00 | 0.00 | 0.00 | 86 | 1017.9 |
| 20260507004520 | 81 | 96 | 3.0 | 11.0 | 0.00 | 0.00 | 0.00 | 86 | 1017.9 |
| 20260507004006 | 81 | 138 | 6.0 | 11.0 | 0.00 | 0.00 | 0.00 | 86 | 1017.8 |
| 20260507003507 | 81 | 122 | 4.0 | 10.0 | 0.00 | 0.00 | 0.00 | 86 | 1017.7 |
| 20260507003019 | 81 | 134 | 5.0 | 9.0 | 0.00 | 0.00 | 0.00 | 86 | 1017.7 |
| 20260507002507 | 81 | 142 | 4.0 | 9.0 | 0.00 | 0.00 | 0.00 | 86 | 1017.6 |
| 20260507002007 | 81 | 130 | 4.0 | 9.0 | 0.00 | 0.00 | 0.00 | 86 | 1017.6 |
| 20260507001525 | 81 | 132 | 2.0 | 7.0 | 0.00 | 0.00 | 0.00 | 85 | 1017.6 |
| 20260507001007 | 81 | 123 | 2.0 | 7.0 | 0.00 | 0.00 | 0.00 | 85 | 1017.6 |
| 20260507000507 | 81 | 116 | 3.0 | 9.0 | 0.00 | 0.00 | 0.00 | 85 | 1017.6 |
| 20260507000015 | 81 | 105 | 2.0 | 9.0 | 0.00 | 0.00 | 0.00 | 84 | 1017.5 |
| 20260506233507 | 82 | 150 | 4.0 | 8.0 | 0.00 | 0.00 | 0.00 | 83 | 1017.3 |
| 20260506233021 | 82 | 115 | 5.0 | 8.0 | 0.00 | 0.00 | 0.00 | 83 | 1017.3 |
| 20260506232506 | 82 | 148 | 4.0 | 9.0 | 0.00 | 0.00 | 0.00 | 83 | 1017.2 |
| 20260506232010 | 82 | 136 | 4.0 | 9.0 | 0.00 | 0.00 | 0.00 | 83 | 1017.0 |
| 20260506231522 | 83 | 138 | 4.0 | 10.0 | 0.00 | 0.00 | 0.00 | 83 | 1016.8 |
| 20260506231007 | 83 | 175 | 6.0 | 11.0 | 0.00 | 0.00 | 0.00 | 82 | 1016.8 |
| 20260506230506 | 83 | 137 | 6.0 | 11.0 | 0.00 | 0.00 | 0.00 | 82 | 1016.8 |
| 20260506230022 | 83 | 150 | 6.0 | 10.0 | 0.00 | 0.00 | 0.00 | 82 | 1016.7 |
| 20260506225508 | 83 | 146 | 5.0 | 9.0 | 0.00 | 0.00 | 0.00 | 81 | 1016.7 |
| 20260506225016 | 83 | 139 | 5.0 | 10.0 | 0.00 | 0.00 | 0.00 | 81 | 1016.7 |
| 20260506224517 | 83 | 137 | 4.0 | 10.0 | 0.00 | 0.00 | 0.00 | 80 | 1016.7 |
| 20260506224006 | 84 | 134 | 5.0 | 11.0 | 0.00 | 0.00 | 0.00 | 80 | 1016.7 |
| 20260506223505 | 84 | 157 | 2.0 | 12.0 | 0.00 | 0.00 | 0.00 | 79 | 1016.6 |
| 20260506223019 | 84 | 161 | 6.0 | 12.0 | 0.00 | 0.00 | 0.00 | 79 | 1016.5 |
| 20260506222506 | 84 | 149 | 6.0 | 12.0 | 0.00 | 0.00 | 0.00 | 78 | 1016.4 |
| 20260506222008 | 84 | 174 | 6.0 | 14.0 | 0.00 | 0.00 | 0.00 | 78 | 1016.3 |
| 20260506221517 | 85 | 146 | 5.0 | 14.0 | 0.00 | 0.00 | 0.00 | 77 | 1016.4 |
| 20260506221007 | 85 | 199 | 8.0 | 16.0 | 0.00 | 0.00 | 0.00 | 77 | 1016.3 |
| 20260506220507 | 85 | 134 | 5.0 | 16.0 | 0.00 | 0.00 | 0.00 | 77 | 1016.3 |
| 20260506220018 | 85 | 159 | 9.0 | 15.0 | 0.00 | 0.00 | 0.00 | 77 | 1016.3 |
| 20260506215510 | 85 | 170 | 7.0 | 14.0 | 0.00 | 0.00 | 0.00 | 76 | 1016.2 |
| 20260506215008 | 85 | 183 | 8.0 | 14.0 | 0.00 | 0.00 | 0.00 | 75 | 1016.2 |
| 20260506214520 | 86 | 157 | 5.0 | 14.0 | 0.00 | 0.00 | 0.00 | 75 | 1016.2 |
| 20260506214010 | 86 | 123 | 6.0 | 14.0 | 0.00 | 0.00 | 0.00 | 75 | 1016.1 |
| 20260506213505 | 86 | 158 | 7.0 | 13.0 | 0.00 | 0.00 | 0.00 | 74 | 1016.2 |
| 20260506213017 | 86 | 128 | 6.0 | 12.0 | 0.00 | 0.00 | 0.00 | 73 | 1016.0 |
| 20260506212505 | 86 | 142 | 5.0 | 13.0 | 0.00 | 0.00 | 0.00 | 74 | 1016.1 |
| 20260506212008 | 87 | 146 | 6.0 | 13.0 | 0.00 | 0.00 | 0.00 | 74 | 1016.1 |
| 20260506211522 | 86 | 102 | 7.0 | 13.0 | 0.00 | 0.00 | 0.00 | 74 | 1016.0 |
| 20260506211005 | 86 | 133 | 8.0 | 14.0 | 0.00 | 0.00 | 0.00 | 74 | 1016.0 |
| 20260506210507 | 87 | 159 | 8.0 | 14.0 | 0.00 | 0.00 | 0.00 | 73 | 1015.9 |
| 20260506210028 | 87 | 196 | 6.0 | 17.0 | 0.00 | 0.00 | 0.00 | 73 | 1015.9 |
| 20260506205509 | 87 | 161 | 8.0 | 17.0 | 0.00 | 0.00 | 0.00 | 73 | 1015.9 |
| 20260506205004 | 87 | 139 | 10.0 | 18.0 | 0.00 | 0.00 | 0.00 | 74 | 1015.8 |
| 20260506204511 | 87 | 127 | 10.0 | 18.0 | 0.00 | 0.00 | 0.00 | 73 | 1015.7 |
| 20260506204005 | 87 | 135 | 7.0 | 20.0 | 0.00 | 0.00 | 0.00 | 73 | 1015.8 |
| 20260506203504 | 87 | 179 | 5.0 | 20.0 | 0.00 | 0.00 | 0.00 | 74 | 1015.7 |
| 20260506203014 | 87 | 138 | 9.0 | 19.0 | 0.00 | 0.00 | 0.00 | 74 | 1015.8 |
| 20260506202507 | 87 | 123 | 8.0 | 16.0 | 0.00 | 0.00 | 0.00 | 73 | 1015.7 |
| 20260506202009 | 87 | 162 | 8.0 | 16.0 | 0.00 | 0.00 | 0.00 | 73 | 1015.8 |
| 20260506201520 | 88 | 172 | 6.0 | 16.0 | 0.00 | 0.00 | 0.00 | 72 | 1015.7 |
| 20260506201006 | 88 | 157 | 9.0 | 15.0 | 0.00 | 0.00 | 0.00 | 72 | 1015.7 |
| 20260506200505 | 87 | 161 | 6.0 | 21.0 | 0.00 | 0.00 | 0.00 | 72 | 1015.7 |
| 20260506200035 | 87 | 164 | 9.0 | 21.0 | 0.00 | 0.00 | 0.00 | 72 | 1015.7 |
| 20260506195508 | 88 | 171 | 9.0 | 16.0 | 0.00 | 0.00 | 0.00 | 72 | 1015.9 |
| 20260506195010 | 88 | 157 | 9.0 | 19.0 | 0.00 | 0.00 | 0.00 | 72 | 1015.9 |
| 20260506194518 | 88 | 153 | 12.0 | 19.0 | 0.00 | 0.00 | 0.00 | 70 | 1015.9 |
| 20260506194008 | 88 | 127 | 7.0 | 19.0 | 0.00 | 0.00 | 0.00 | 72 | 1015.9 |
| 20260506193505 | 88 | 178 | 10.0 | 19.0 | 0.00 | 0.00 | 0.00 | 70 | 1015.9 |
| 20260506193010 | 88 | 118 | 8.0 | 15.0 | 0.00 | 0.00 | 0.00 | 69 | 1015.9 |
| 20260506192504 | 88 | 182 | 7.0 | 17.0 | 0.00 | 0.00 | 0.00 | 70 | 1015.9 |
| 20260506192009 | 88 | 161 | 9.0 | 17.0 | 0.00 | 0.00 | 0.00 | 70 | 1015.9 |
| 20260506191519 | 89 | 194 | 10.0 | 20.0 | 0.00 | 0.00 | 0.00 | 69 | 1016.2 |
| 20260506191006 | 89 | 171 | 10.0 | 20.0 | 0.00 | 0.00 | 0.00 | 67 | 1016.1 |
| 20260506190020 | 89 | 110 | 8.0 | 18.0 | 0.00 | 0.00 | 0.00 | 67 | 1016.2 |
| 20260506185510 | 89 | 138 | 10.0 | 18.0 | 0.00 | 0.00 | 0.00 | 67 | 1016.2 |
| 20260506185009 | 89 | 171 | 11.0 | 18.0 | 0.00 | 0.00 | 0.00 | 63 | 1016.2 |
| 20260506184526 | 89 | 163 | 8.0 | 19.0 | 0.00 | 0.00 | 0.00 | 68 | 1016.1 |
| 20260506184009 | 89 | 119 | 9.0 | 19.0 | 0.00 | 0.00 | 0.00 | 70 | 1016.3 |
| 20260506183510 | 89 | 134 | 11.0 | 18.0 | 0.00 | 0.00 | 0.00 | 69 | 1016.3 |
| 20260506183022 | 88 | 199 | 9.0 | 20.0 | 0.00 | 0.00 | 0.00 | 70 | 1016.3 |
| 20260506182504 | 88 | 180 | 10.0 | 20.0 | 0.00 | 0.00 | 0.00 | 69 | 1016.4 |
| 20260506182008 | 89 | 182 | 11.0 | 20.0 | 0.00 | 0.00 | 0.00 | 69 | 1016.4 |
| 20260506181512 | 89 | 153 | 10.0 | 17.0 | 0.00 | 0.00 | 0.00 | 70 | 1016.4 |
| 20260506181005 | 89 | 133 | 7.0 | 17.0 | 0.00 | 0.00 | 0.00 | 68 | 1016.4 |
| 20260506180509 | 89 | 144 | 10.0 | 17.0 | 0.00 | 0.00 | 0.00 | 67 | 1016.6 |